Home > Weather > Nelson > Past weeks

Flag for Canada Past Weather in Nelson, British Columbia, Canada — Yesterday and Last 2 Weeks

Now
55 °F

Cool.


Feels Like: 55 °F
Forecast: 63 / 94 °F
Wind: 2 mph from West

Location: Nelson

Current Time: Jun 29, 2016 at 5:54:16 AM

Latest Report: Jun 29, 2016 at 5:00 AM


Visibility: N/A

Pressure: 30.07 "Hg (28.13 "Hg at 560m altitude)

Humidity: 89%

Dew Point: 52 °F

Location of NelsonLocation

Past Weather in Nelson — Graph

°F

Nelson Temperature Yesterday

Maximum temperature yesterday: 90 °F (at 3:00 PM)
Minimum temperature yesterday: 54 °F (at 5:00 AM)
Average temperature yesterday: 71 °F

High & Low Weather Summary for the Past Weeks

 TemperatureHumidityPressure
High90 °F (Jun 28, 3:00 PM)99% (Jun 18, 8:00 PM)30.38 "Hg (Jun 18, 8:00 PM)
Low38 °F (Jun 15, 2:00 AM)20% (Jun 28, 4:00 PM)29.71 "Hg (Jun 14, 4:00 AM)
Average58 °F70%30.07 "Hg
* Reported Jun 14 4:00 AM — Jun 29 4:00 AM, Nelson, Weather by CustomWeather, © 2016

Note: Actual official high and low records may vary slightly from our data, if they occured in-between our weather recording intervals... More about our weather records

Advertising

Nelson Weather History for the Previous 24 Hours

Scroll right to see more
 ConditionsComfort  
Time TempWeatherWind HumidityBarometerVisibility
4:00 AM
Wed, Jun 29
56 °FCool.3 mph88%30.06 "HgN/A
3:00 AM57 °FCool.3 mph88%30.05 "HgN/A
2:00 AM58 °FCool.2 mph85%30.05 "HgN/A
1:00 AM58 °FCool.2 mph84%30.04 "HgN/A
12:00 AM60 °FCool.2 mph80%30.03 "HgN/A
11:00 PM
Tue, Jun 28
63 °FMild.3 mph74%30.02 "HgN/A
10:00 PM65 °FMild.No wind70%30.02 "HgN/A
9:00 PM68 °FMild.No wind65%30.00 "HgN/A
8:00 PM73 °FMild.1 mph51%29.98 "HgN/A
7:00 PM84 °FPleasantly warm.1 mph36%29.97 "HgN/A
6:00 PM89 °FHot.2 mph28%29.96 "HgN/A
5:00 PM90 °FHot.6 mph24%29.98 "HgN/A
4:00 PM89 °FHot.5 mph20%29.99 "HgN/A
3:00 PM90 °FHot.3 mph24%30.01 "HgN/A
2:00 PM87 °FPleasantly warm.3 mph27%30.02 "HgN/A
1:00 PM83 °FPleasantly warm.13 mph33%30.04 "HgN/A
12:00 PM80 °FPleasantly warm.12 mph40%30.07 "HgN/A
11:00 AM77 °FWarm.7 mph42%30.08 "HgN/A
10:00 AM72 °FMild.7 mph49%30.10 "HgN/A
9:00 AM69 °FMild.7 mph57%30.11 "HgN/A
8:00 AM64 °FMild.7 mph65%30.13 "HgN/A
7:00 AM59 °FCool.3 mph76%30.14 "HgN/A
6:00 AM55 °FCool.5 mph88%30.13 "HgN/A
5:00 AM54 °FCool.3 mph88%30.12 "HgN/A
Weather by CustomWeather, © 2016

See weather overviewHow to use our weather pages